Hourly Weather Bolshoe Zaharovo

Today, 27 July, Tuesday

Time Temperature Precipitation Wind Pressure Humidity
00:00 +19°C° 0.1 mm 1 mps 746 mmHg 76%
01:00 +18°C° 0.1 mm 1 mps 746 mmHg 79%
02:00 +18°C° 0.1 mm 1 mps 746 mmHg 81%
03:00 +18°C° 0.2 mm 1 mps 746 mmHg 82%
04:00 +18°C° 0.2 mm 1 mps 746 mmHg 83%
05:00 +18°C° 0.2 mm 1 mps 746 mmHg 84%
06:00 +20°C° 0 mm 1 mps 746 mmHg 78%
07:00 +21°C° 0 mm 2 mps 746 mmHg 72%
08:00 +24°C° 0 mm 2 mps 746 mmHg 66%
09:00 +25°C° 0 mm 2 mps 746 mmHg 60%
10:00 +27°C° 0 mm 2 mps 745 mmHg 53%
11:00 +29°C° 0 mm 3 mps 745 mmHg 47%
12:00 +29°C° 0 mm 3 mps 745 mmHg 46%
13:00 +29°C° 0 mm 3 mps 745 mmHg 45%
14:00 +29°C° 0 mm 3 mps 744 mmHg 44%
15:00 +28°C° 0.1 mm 3 mps 744 mmHg 48%
16:00 +28°C° 0.1 mm 2 mps 744 mmHg 52%
17:00 +27°C° 0.1 mm 2 mps 744 mmHg 56%
18:00 +25°C° 0.1 mm 2 mps 743 mmHg 60%
19:00 +24°C° 0.1 mm 2 mps 743 mmHg 64%
20:00 +22°C° 0.1 mm 1 mps 743 mmHg 69%
21:00 +21°C° 0 mm 2 mps 743 mmHg 70%
22:00 +20°C° 0 mm 2 mps 743 mmHg 71%
23:00 +20°C° 0 mm 2 mps 743 mmHg 73%

Tomorrow, 28 July, Wednesday

Time Temperature Precipitation Wind Pressure Humidity
00:00 +19°C° 0 mm 2 mps 743 mmHg 74%
01:00 +19°C° 0 mm 2 mps 743 mmHg 74%
02:00 +18°C° 0 mm 2 mps 742 mmHg 75%
03:00 +19°C° 0 mm 2 mps 742 mmHg 74%
04:00 +19°C° 0 mm 2 mps 742 mmHg 73%
05:00 +19°C° 0 mm 2 mps 742 mmHg 72%
06:00 +20°C° 0 mm 2 mps 742 mmHg 68%
07:00 +21°C° 0 mm 2 mps 741 mmHg 65%
08:00 +23°C° 0 mm 2 mps 741 mmHg 62%
09:00 +21°C° 0.1 mm 3 mps 741 mmHg 67%
10:00 +21°C° 0.1 mm 3 mps 741 mmHg 72%
11:00 +20°C° 0.1 mm 4 mps 741 mmHg 77%
12:00 +19°C° 1.5 mm 4 mps 741 mmHg 82%
13:00 +17°C° 1.5 mm 5 mps 741 mmHg 86%
14:00 +17°C° 1.5 mm 5 mps 740 mmHg 90%
15:00 +19°C° 0.2 mm 5 mps 740 mmHg 86%
16:00 +19°C° 0.2 mm 5 mps 739 mmHg 82%
17:00 +20°C° 0.2 mm 5 mps 738 mmHg 78%
18:00 +20°C° 0.2 mm 5 mps 738 mmHg 82%
19:00 +19°C° 0.2 mm 5 mps 738 mmHg 85%
20:00 +19°C° 0.2 mm 5 mps 737 mmHg 89%
21:00 +19°C° 0 mm 5 mps 737 mmHg 91%
22:00 +19°C° 0 mm 5 mps 737 mmHg 94%
23:00 +19°C° 0 mm 5 mps 736 mmHg 96%

Day after tomorrow, 29 July, Thursday

Time Temperature Precipitation Wind Pressure Humidity
00:00 +18°C° 0 mm 4 mps 736 mmHg 96%
01:00 +18°C° 0 mm 4 mps 736 mmHg 97%
02:00 +18°C° 0 mm 3 mps 736 mmHg 97%
03:00 +18°C° 0 mm 3 mps 736 mmHg 97%
04:00 +18°C° 0 mm 3 mps 736 mmHg 97%
05:00 +18°C° 0 mm 3 mps 736 mmHg 96%
06:00 +20°C° 0 mm 3 mps 736 mmHg 89%
07:00 +21°C° 0 mm 4 mps 736 mmHg 82%
08:00 +23°C° 0 mm 4 mps 736 mmHg 74%
09:00 +25°C° 0 mm 4 mps 736 mmHg 67%
10:00 +27°C° 0 mm 4 mps 736 mmHg 60%
11:00 +28°C° 0 mm 4 mps 736 mmHg 52%
12:00 +29°C° 0 mm 4 mps 736 mmHg 50%
13:00 +29°C° 0 mm 4 mps 736 mmHg 47%
14:00 +30°C° 0 mm 4 mps 736 mmHg 45%
15:00 +29°C° 0 mm 3 mps 736 mmHg 51%
16:00 +28°C° 0 mm 2 mps 735 mmHg 57%
17:00 +27°C° 0 mm 1 mps 735 mmHg 63%
18:00 +25°C° 0.1 mm 2 mps 735 mmHg 70%
19:00 +23°C° 0.1 mm 2 mps 735 mmHg 77%
20:00 +20°C° 0.1 mm 2 mps 735 mmHg 84%
21:00 +20°C° 0.1 mm 2 mps 735 mmHg 85%
22:00 +20°C° 0.1 mm 2 mps 735 mmHg 86%
23:00 +21°C° 0.1 mm 1 mps 735 mmHg 86%

30 July, Friday

Time Temperature Precipitation Wind Pressure Humidity
00:00 +20°C° 0.1 mm 1 mps 735 mmHg 88%
01:00 +19°C° 0.1 mm 2 mps 735 mmHg 89%
02:00 +19°C° 0.1 mm 2 mps 735 mmHg 90%
03:00 +19°C° 0 mm 2 mps 735 mmHg 89%
04:00 +19°C° 0 mm 2 mps 735 mmHg 89%
05:00 +18°C° 0 mm 2 mps 735 mmHg 88%
06:00 +20°C° 0 mm 2 mps 736 mmHg 82%
07:00 +21°C° 0 mm 2 mps 736 mmHg 76%
08:00 +24°C° 0 mm 2 mps 736 mmHg 70%
09:00 +25°C° 0 mm 2 mps 736 mmHg 65%
10:00 +27°C° 0 mm 2 mps 736 mmHg 59%
11:00 +28°C° 0 mm 2 mps 736 mmHg 53%
12:00 +28°C° 0 mm 3 mps 736 mmHg 52%
13:00 +28°C° 0 mm 3 mps 736 mmHg 51%
14:00 +29°C° 0 mm 3 mps 736 mmHg 50%
15:00 +28°C° 0 mm 3 mps 736 mmHg 55%
16:00 +27°C° 0 mm 3 mps 736 mmHg 59%
17:00 +26°C° 0 mm 2 mps 736 mmHg 64%
18:00 +25°C° 0 mm 2 mps 736 mmHg 65%
19:00 +24°C° 0 mm 2 mps 736 mmHg 67%
20:00 +23°C° 0 mm 2 mps 736 mmHg 68%
21:00 +21°C° 0 mm 2 mps 736 mmHg 69%
22:00 +20°C° 0 mm 2 mps 736 mmHg 71%
23:00 +19°C° 0 mm 2 mps 736 mmHg 72%

31 July, Saturday

Time Temperature Precipitation Wind Pressure Humidity
00:00 +19°C° 0 mm 2 mps 736 mmHg 73%
01:00 +18°C° 0 mm 2 mps 736 mmHg 73%
02:00 +18°C° 0 mm 2 mps 736 mmHg 74%
03:00 +18°C° 0 mm 3 mps 736 mmHg 74%
04:00 +18°C° 0 mm 3 mps 736 mmHg 74%
05:00 +18°C° 0 mm 3 mps 736 mmHg 73%
06:00 +20°C° 0 mm 4 mps 736 mmHg 67%
07:00 +22°C° 0 mm 4 mps 736 mmHg 61%
08:00 +25°C° 0 mm 5 mps 736 mmHg 54%
09:00 +26°C° 0 mm 5 mps 736 mmHg 52%
10:00 +27°C° 0 mm 5 mps 736 mmHg 50%
11:00 +28°C° 0 mm 6 mps 736 mmHg 48%
12:00 +28°C° 0 mm 6 mps 736 mmHg 48%
13:00 +29°C° 0 mm 6 mps 736 mmHg 47%
14:00 +29°C° 0 mm 6 mps 736 mmHg 47%
15:00 +28°C° 0 mm 5 mps 736 mmHg 50%
16:00 +28°C° 0 mm 4 mps 736 mmHg 53%
17:00 +27°C° 0 mm 3 mps 736 mmHg 57%
18:00 +25°C° 0 mm 3 mps 736 mmHg 62%
19:00 +24°C° 0 mm 2 mps 736 mmHg 68%
20:00 +23°C° 0 mm 1 mps 735 mmHg 73%
21:00 +21°C° 0 mm 2 mps 735 mmHg 74%
22:00 +21°C° 0 mm 2 mps 735 mmHg 74%
23:00 +20°C° 0 mm 2 mps 735 mmHg 75%

1 August, Sunday

Time Temperature Precipitation Wind Pressure Humidity
00:00 +20°C° 0.1 mm 2 mps 735 mmHg 74%
01:00 +20°C° 0.1 mm 2 mps 734 mmHg 74%
02:00 +20°C° 0.1 mm 3 mps 734 mmHg 73%
03:00 +20°C° 0 mm 3 mps 734 mmHg 72%
04:00 +20°C° 0 mm 3 mps 733 mmHg 70%
05:00 +20°C° 0 mm 3 mps 733 mmHg 69%
06:00 +21°C° 0.2 mm 4 mps 733 mmHg 71%
07:00 +22°C° 0.2 mm 4 mps 733 mmHg 73%
08:00 +22°C° 0.2 mm 5 mps 733 mmHg 75%
09:00 +23°C° 0.1 mm 5 mps 733 mmHg 72%
10:00 +25°C° 0.1 mm 5 mps 733 mmHg 69%
11:00 +26°C° 0.1 mm 5 mps 734 mmHg 65%
12:00 +27°C° 0.2 mm 5 mps 734 mmHg 65%
13:00 +27°C° 0.2 mm 5 mps 734 mmHg 64%
14:00 +27°C° 0.2 mm 5 mps 735 mmHg 63%
15:00 +27°C° 0.1 mm 5 mps 735 mmHg 59%
16:00 +28°C° 0.1 mm 4 mps 735 mmHg 56%
17:00 +28°C° 0.1 mm 3 mps 735 mmHg 53%
18:00 +27°C° 0 mm 3 mps 735 mmHg 58%
19:00 +25°C° 0 mm 3 mps 735 mmHg 64%
20:00 +22°C° 0 mm 3 mps 735 mmHg 69%
21:00 +22°C° 0.1 mm 3 mps 736 mmHg 73%
22:00 +21°C° 0.1 mm 2 mps 736 mmHg 76%
23:00 +20°C° 0.1 mm 2 mps 736 mmHg 80%
Show more

We Need Your Consent

Meteoprog and our Service Providers may store and access personal data such as cookies, device identifiers or other similar technologies on your device and process such data to personalise content and ads, as well as provide social media features and to analyse the traffic.

  • Store and/or access information on your device

    Cookies, device identifiers or other information can be stored or accessed on your device for the purposes indicated above.

  • Personalised ads and content, ad and content measurement, audience insights, and products development

    Ads and content can be personalised based on a profile. More data can be added to better personalise ads and content. Ad and content performance can be measured. Insights about the audience who saw the ads and content can be derived. Such data can be used to develop or improve user’s experience, systems and software.

By clicking ‘I Agree’ you will allow the use of indicated cookies, device identifiers, web beacons or other similar technologies. Your settings can be changed in the browser on your device.

For certain purposes, legitimate interests may be relied on, rather than consent. You can read more about this in our Privacy and Cookie Policy.